Weather in Ulu

Russia / Sakha (Yakutia) Republic     60°18′51″N   127°25′48″E
temp.,
°C
wind,
m/s
gust,
m/s
humid.,
%
clouds,
%
prec.,
mm/h
press.,
hPa
HPBL,
m
18 april, sun
sun1800:00−3wsw41073100 0.0 1002483
03:00−4wsw51273100 0.0 1004800
06:00−6w41175100 0.0 1008635
09:00−5w4767100 0.0 10111158
12:00−4wnw4659100 0.0 10121355
15:00−4wnw3458100 0.0 10131346
18:00−6nw3572100 0.0 1015469
21:00−8nnw2786100 0.0 1017304
19 april, mon
mon1900:00−9n3895100 0.3 1017616
03:00−9nnw3795100 1.4 1017549
06:00−10nw3894100 1.1 1017585
09:00−9nnw5890100 1.9 1017846
12:00−8nnw5784100 0.6 10171104
15:00−7nnw5781100 1.0 10161209
18:00−7nnw4885100 0.4 10171042
21:00−10nw3890100 0.4 1019258
20 april, tue
tue2000:00−12wnw2896100 0.0 1019185
03:00−16w219961 0.0 10209
06:00−16w229969 0.0 101949
09:00−8nw247010 0.0 1017792
12:00−4wnw1266100 0.0 10151120
15:00−3se1162100 0.0 10141173
18:00−3ese1269100 0.0 1015530
21:00−11se1190100 0.0 101810
21 april, wed
wed2100:00−13ese119492 0.0 10199
03:00−15se11965 0.0 10199
06:00−14s119590 0.0 102015
09:00−4se11765 0.0 1020452
12:00−2s2365100 0.1 10201220
15:000s236299 0.2 10201236
18:00−1se2471100 0.0 1020217
21:00−5sse1192100 0.0 102310
22 april, thu
thu2200:00−8ese1195100 0.0 102310
03:00−7wsw0097100 0.1 102410
06:00−6nnw1297100 0.4 102477
09:00−3nnw4688100 0.8 1024632
12:00−3nnw5574100 0.3 10261043
15:00−3nnw6774100 0.3 10281186
18:00−5nnw4884100 0.1 10311027
21:00−8nnw4108958 0.2 1033389